Vorticity
16 19 37 -13 -72 10 24 2 -12 -7 25 50 17 37 12 9 9 4 10 13 9 8
0 40 29 24 19 65 31 27 10 -2 16 -12 -12 61 4 4 5 3 10 11 9 7
26 37 20 27 16 10 15 6 9 20 4 0 29 49 9 -3 5 9 8 11 7 8
1 14 1 29 16 32 18 26 23 29 27 -0 15 4 10 3 9 10 9 8 8 8
2 -5 11 5 19 14 28 31 29 23 6 -1 9 15 5 11 11 9 8 8 9 8
10 25 15 8 5 12 11 20 21 11 40 39 39 -5 -0 12 9 9 9 9 11 9
11 2 29 23 7 12 8 19 20 26 30 22 -5 2 15 17 15 13 10 9 10 10
12 26 -4 10 13 19 8 10 10 19 34 32 45 7 -10 -1 6 8 8 8 9 10
-16 9 26 18 4 21 11 6 10 10 23 28 -13 -4 10 1 1 6 14 8 2 4
30 15 2 41 20 26 20 20 10 7 20 21 -9 14 13 12 4 -6 -1 1 -3 -9
6 11 16 13 12 9 11 20 14 15 16 11 9 11 20 12 29 42 41 42 46 54
1 7 6 7 7 10 23 10 4 15 18 17 6 7 10 10 8 2 -1 3 21 26
16 7 7 7 7 6 7 10 10 22 16 24 24 14 12 12 18 20 9 16 7 8
9 10 17 8 7 5 9 8 6 7 9 13 11 6 7 3 -1 14 7 9 2 1
Height
2979 2977 2977 2978 2979 2981 2984 2992 2998 3003 3009 3015 3022 3031 3040 3049 3055 3060 3066 3070 3075 3080
2975 2971 2968 2969 2969 2971 2977 2986 2994 2995 3003 3009 3017 3026 3033 3041 3049 3056 3060 3064 3067 3073
2973 2965 2963 2964 2964 2967 2972 2978 2984 2990 2995 3000 3008 3018 3025 3032 3042 3049 3054 3056 3061 3067
2973 2969 2967 2962 2963 2965 2966 2972 2979 2984 2988 2995 3002 3009 3019 3029 3037 3042 3047 3051 3057 3063
2971 2970 2969 2965 2963 2964 2964 2969 2973 2978 2984 2990 2996 3004 3016 3024 3031 3037 3042 3048 3053 3058
2971 2969 2967 2966 2964 2965 2967 2968 2969 2972 2977 2983 2992 3000 3010 3020 3027 3032 3038 3043 3049 3055
2970 2968 2967 2965 2966 2966 2967 2968 2969 2972 2978 2984 2990 2997 3007 3014 3022 3028 3032 3038 3043 3048
2969 2967 2966 2966 2965 2966 2968 2969 2971 2973 2978 2985 2992 2997 3004 3013 3019 3024 3028 3032 3038 3042
2971 2968 2965 2965 2966 2966 2968 2971 2974 2977 2980 2986 2992 2997 3004 3009 3015 3020 3025 3029 3034 3037
2972 2972 2970 2968 2968 2969 2970 2973 2976 2979 2982 2989 2994 2999 3004 3009 3013 3019 3023 3026 3029 3033
2974 2974 2974 2974 2974 2974 2975 2976 2978 2981 2984 2989 2994 2999 3003 3007 3011 3014 3017 3020 3024 3027
2980 2979 2980 2980 2979 2979 2979 2980 2981 2983 2987 2990 2994 2998 3003 3007 3009 3012 3015 3018 3021 3024
2982 2982 2983 2983 2983 2984 2982 2982 2984 2986 2989 2991 2995 2999 3003 3006 3009 3011 3015 3017 3020 3022
2983 2983 2983 2983 2982 2983 2982 2986 2987 2988 2990 2993 2998 3001 3003 3005 3008 3010 3013 3015 3017 3019